Regional Weather Roundup
Issued by NWS

Home | Current Version | Previous Version | Text Only | Print | Product List | Glossary Off
Versions: 1 2 3 4 5 6 7 8 9 10 11 12 13 14 15 16 17 18 19 20 21 22 23 24 25 26 27

000
ASUS45 KSLC 240010
RWRUT

UTAH REGIONAL WEATHER ROUNDUP
NATIONAL WEATHER SERVICE SALT LAKE CITY UT
600 PM MDT SAT SEP 23 2017

UTZ001>011-023>025-240100-

NORTHERN UTAH

CITY           SKY/WX    TMP DP  RH WIND       PRES   REMARKS
BRIGHAM CITY   CLOUDY    55  33  44 NW7       29.93S
HILL AFB       CLOUDY    50  35  56 N6        29.93R
LOGAN          CLOUDY    55  35  47 N10       29.92R
OGDEN          CLOUDY    52  36  54 CALM      29.93R
SALT LAKE CITY LGT RAIN  51  40  65 N9        29.93R
TOOELE VALLEY  CLOUDY    52  36  54 CALM      29.95R
WENDOVER       CLOUDY    53  30  41 N14       29.97S
HEBER CITY     CLOUDY    43  37  81 E7        29.91S
WEST JORDAN    CLOUDY    46  44  90 N8        29.94S

$$

UTZ011>015-024>027-240100-

CENTRAL/NORTHEAST UTAH

CITY           SKY/WX    TMP DP  RH WIND       PRES   REMARKS
PROVO AIRPORT  RAIN      47  40  76 VRB3      29.94R
MOAB/CANYONLAN MOSUNNY   64  40  41 NE21      29.71S
DELTA          CLOUDY    43  39  87 NW9       29.97R
PRICE          MOSUNNY   52  33  48 W15       29.79R
RICHFIELD      PTSUNNY   43  39  87 CALM      29.98R
ROOSEVELT      SUNNY     63  34  34 SE10      29.81S
VERNAL         SUNNY     63  33  32 VRB3      29.80S

$$

UTZ013>016-019>022-027-240100-

SOUTHERN UTAH

CITY           SKY/WX    TMP DP  RH WIND       PRES   REMARKS
BRYCE CANYON   CLOUDY    42  28  57 N13       29.93S
CEDAR CITY     LGT RAIN  45  34  65 SW13      29.93R
MILFORD        CLOUDY    45  37  73 NE14      29.95R
ST GEORGE      MOCLDY    63  30  28 NW12      29.84S
HANKSVILLE     MOSUNNY   70  14  11 SW18G25   29.73S
KANAB          CLOUDY    59  25  27 W8G15     29.90R
BLANDING         N/A     66  15  14 S14G22    29.85S

$$

REGIONAL REPORTS     COLORADO/ARIZONA

CITY           SKY/WX    TMP DP  RH WIND       PRES   REMARKS
CRAIG, CO      CLOUDY    54  40  59 E10       29.88S
GRAND JUNCTION CLOUDY    54  47  77 SE9       29.83F
RIFLE, CO      CLOUDY    61  41  47 SE10      29.84S
MONTROSE, CO   SUNNY     62  40  44 SE13      29.83F
CORTEZ, CO     PTSUNNY   63  44  50 SE8       29.82S
PAGE, AZ       MOSUNNY   66  23  19 W13G25    29.76R
GRAND CANYON   PTSUNNY   53  21  28 NW10G17   29.90R
KINGMAN, AZ    SUNNY     69  25  19 NW12      29.84S
FLAGSTAFF, AZ  SUNNY     56  15  20 SW14      29.91R

$$

REGIONAL REPORTS    NEVADA/IDAHO/WYOMING

CITY           SKY/WX    TMP DP  RH WIND       PRES   REMARKS
LAS VEGAS, NV  MOSUNNY   73  20  13 N9        29.81S
ELY, NY        PTSUNNY   44  29  55 NW16      29.98R
ELKO, NV       CLOUDY    51  24  34 N13G18    30.01R
POCATELLO, ID  CLOUDY    53  35  50 NW6       29.99S
BURLEY, ID     MOSUNNY   51  33  50 W6        29.99F
FORT BRIDGER,    N/A     47  37  68 N5        29.96R
EVANSTON, WY   LGT RAIN  41  37  86 N3        29.94S
ROCK SPRINGS,  PTSUNNY   45  39  79 NE16      29.93R
KEMMERER, WY     N/A     46  32  57 CALM      29.94S

$$




USA.gov is the U.S. government's official web portal to all federal, state and local government web resources and services.